Time,TemperatureF,DewpointF,PressureIn,WindDirection,WindDirectionDegrees,WindSpeedMPH,WindSpeedGustMPH,Humidity,HourlyPrecipIn,Conditions,Clouds,dailyrainin,SoftwareType,DateUTC
2013-07-06 00:01:00,82.8,63.3,29.09,South,171,3.1,8.3,52,0.00,,,0.00,LWC V2.10 B1813,2013-07-06 05:01:00,
2013-07-06 00:06:00,82.4,63.0,29.09,East,91,3.6,6.3,52,0.00,,,0.00,LWC V2.10 B1813,2013-07-06 05:06:00,
2013-07-06 00:11:00,82.2,63.4,29.09,SE,134,5.8,8.3,53,0.00,,,0.00,LWC V2.10 B1813,2013-07-06 05:11:00,
2013-07-06 00:16:00,82.0,63.7,29.09,SSE,157,4.9,11.4,54,0.00,,,0.00,LWC V2.10 B1813,2013-07-06 05:16:00,
2013-07-06 00:21:00,81.9,64.1,29.09,SE,136,3.1,8.7,55,0.00,,,0.00,LWC V2.10 B1813,2013-07-06 05:21:00,
2013-07-06 00:26:00,81.7,63.9,29.09,SE,144,4.9,7.2,55,0.00,,,0.00,LWC V2.10 B1813,2013-07-06 05:26:00,
2013-07-06 00:31:00,81.5,64.3,29.09,SSE,151,6.3,9.2,56,0.00,,,0.00,LWC V2.10 B1813,2013-07-06 05:31:00,
2013-07-06 00:36:00,81.5,64.8,29.12,SE,144,3.1,11.4,57,0.00,,,0.00,LWC V2.10 B1813,2013-07-06 05:36:00,
2013-07-06 00:41:00,81.3,65.1,29.12,SSE,162,3.1,6.3,58,0.00,,,0.00,LWC V2.10 B1813,2013-07-06 05:41:00,
2013-07-06 00:46:00,81.1,64.9,29.12,SE,130,2.7,6.3,58,0.00,,,0.00,LWC V2.10 B1813,2013-07-06 05:46:00,
2013-07-06 00:51:00,81.0,64.8,29.12,ESE,123,7.6,7.6,58,0.00,,,0.00,LWC V2.10 B1813,2013-07-06 05:51:00,
2013-07-06 00:56:00,81.0,65.7,29.12,SE,146,6.3,12.3,60,0.00,,,0.00,LWC V2.10 B1813,2013-07-06 05:56:00,
2013-07-06 01:01:00,80.8,65.6,29.12,ESE,118,3.1,8.3,60,0.00,,,0.00,LWC V2.10 B1813,2013-07-06 06:01:00,
2013-07-06 01:06:00,80.6,65.9,29.12,South,185,5.8,8.3,61,0.00,,,0.00,LWC V2.10 B1813,2013-07-06 06:06:00,
2013-07-06 01:11:00,80.4,65.7,29.12,SSE,154,5.8,8.7,61,0.00,,,0.00,LWC V2.10 B1813,2013-07-06 06:11:00,
2013-07-06 01:16:00,80.4,65.7,29.12,ESE,122,4.9,7.6,61,0.00,,,0.00,LWC V2.10 B1813,2013-07-06 06:16:00,
2013-07-06 01:21:00,80.2,65.5,29.09,ESE,110,5.8,8.1,61,0.00,,,0.00,LWC V2.10 B1813,2013-07-06 06:21:00,
2013-07-06 01:26:00,80.1,65.8,29.09,ESE,103,5.4,7.6,62,0.00,,,0.00,LWC V2.10 B1813,2013-07-06 06:26:00,
2013-07-06 01:31:00,79.9,65.7,29.09,SE,125,6.3,8.1,62,0.00,,,0.00,LWC V2.10 B1813,2013-07-06 06:31:00,
2013-07-06 01:36:00,79.7,65.5,29.12,SE,139,3.6,8.7,62,0.00,,,0.00,LWC V2.10 B1813,2013-07-06 06:36:00,
2013-07-06 01:41:00,79.5,65.3,29.12,SE,133,5.8,8.1,62,0.00,,,0.00,LWC V2.10 B1813,2013-07-06 06:41:00,
2013-07-06 01:46:00,79.3,65.2,29.12,SSE,153,8.3,8.3,62,0.00,,,0.00,LWC V2.10 B1813,2013-07-06 06:46:00,
2013-07-06 01:51:00,79.3,65.6,29.12,SSE,149,2.7,8.1,63,0.00,,,0.00,LWC V2.10 B1813,2013-07-06 06:51:00,
2013-07-06 01:56:00,79.3,65.6,29.12,SSE,162,5.8,7.6,63,0.00,,,0.00,LWC V2.10 B1813,2013-07-06 06:56:00,
2013-07-06 02:01:00,79.2,65.0,29.12,SSW,210,3.1,7.6,62,0.00,,,0.00,LWC V2.10 B1813,2013-07-06 07:01:00,
2013-07-06 02:06:00,79.0,64.8,29.12,SE,143,6.3,8.3,62,0.00,,,0.00,LWC V2.10 B1813,2013-07-06 07:06:00,
2013-07-06 02:11:00,79.0,64.8,29.12,SSE,164,5.8,7.2,62,0.00,,,0.00,LWC V2.10 B1813,2013-07-06 07:11:00,
2013-07-06 02:16:00,79.0,64.8,29.12,SE,132,3.6,5.8,62,0.00,,,0.00,LWC V2.10 B1813,2013-07-06 07:16:00,
2013-07-06 02:21:00,79.0,64.4,29.12,South,190,5.8,5.8,61,0.00,,,0.00,LWC V2.10 B1813,2013-07-06 07:21:00,
2013-07-06 02:26:00,78.8,64.2,29.12,SSE,151,4.9,6.7,61,0.00,,,0.00,LWC V2.10 B1813,2013-07-06 07:26:00,
2013-07-06 02:31:00,78.6,64.0,29.12,South,172,6.3,6.3,61,0.00,,,0.00,LWC V2.10 B1813,2013-07-06 07:31:00,
2013-07-06 02:36:00,78.4,63.9,29.12,SSE,150,0.0,3.6,61,0.00,,,0.00,LWC V2.10 B1813,2013-07-06 07:36:00,
2013-07-06 02:41:00,78.3,63.7,29.12,SSE,148,3.6,3.6,61,0.00,,,0.00,LWC V2.10 B1813,2013-07-06 07:41:00,
2013-07-06 02:46:00,78.1,63.5,29.12,ESE,117,0.0,5.8,61,0.00,,,0.00,LWC V2.10 B1813,2013-07-06 07:46:00,
2013-07-06 02:51:00,78.1,63.5,29.12,SSE,152,0.0,3.1,61,0.00,,,0.00,LWC V2.10 B1813,2013-07-06 07:51:00,
2013-07-06 02:56:00,77.9,63.3,29.12,ESE,111,2.7,4.9,61,0.00,,,0.00,LWC V2.10 B1813,2013-07-06 07:56:00,
2013-07-06 03:01:00,77.5,63.0,29.12,SSE,153,2.7,2.7,61,0.00,,,0.00,LWC V2.10 B1813,2013-07-06 08:01:00,
2013-07-06 03:06:00,77.4,62.8,29.12,ESE,109,0.0,3.1,61,0.00,,,0.00,LWC V2.10 B1813,2013-07-06 08:06:00,
2013-07-06 03:11:00,77.2,62.7,29.12,SSE,147,0.0,3.1,61,0.00,,,0.00,LWC V2.10 B1813,2013-07-06 08:11:00,
2013-07-06 03:16:00,77.0,62.5,29.12,SSE,163,0.0,0.0,61,0.00,,,0.00,LWC V2.10 B1813,2013-07-06 08:16:00,
2013-07-06 03:21:00,76.8,62.8,29.12,SSE,148,2.2,2.2,62,0.00,,,0.00,LWC V2.10 B1813,2013-07-06 08:21:00,
2013-07-06 03:26:00,76.6,62.6,29.12,SSE,163,2.7,3.6,62,0.00,,,0.00,LWC V2.10 B1813,2013-07-06 08:26:00,
2013-07-06 03:31:00,76.6,62.6,29.12,South,169,2.2,2.2,62,0.00,,,0.00,LWC V2.10 B1813,2013-07-06 08:31:00,
2013-07-06 03:36:00,76.5,62.5,29.12,SE,131,0.0,2.7,62,0.00,,,0.00,LWC V2.10 B1813,2013-07-06 08:36:00,
2013-07-06 03:41:00,76.3,62.7,29.12,SSE,156,0.0,2.7,63,0.00,,,0.00,LWC V2.10 B1813,2013-07-06 08:41:00,
2013-07-06 03:46:00,76.3,62.7,29.12,SE,129,0.0,2.7,63,0.00,,,0.00,LWC V2.10 B1813,2013-07-06 08:46:00,
2013-07-06 03:51:00,76.1,62.6,29.12,East,101,3.1,3.1,63,0.00,,,0.00,LWC V2.10 B1813,2013-07-06 08:51:00,
2013-07-06 03:56:00,75.9,62.8,29.12,SE,124,0.0,2.7,64,0.00,,,0.00,LWC V2.10 B1813,2013-07-06 08:56:00,
2013-07-06 04:01:00,75.7,62.7,29.09,SE,124,3.1,3.1,64,0.00,,,0.00,LWC V2.10 B1813,2013-07-06 09:01:00,
2013-07-06 04:06:00,75.7,62.7,29.09,ESE,109,0.0,3.6,64,0.00,,,0.00,LWC V2.10 B1813,2013-07-06 09:06:00,
2013-07-06 04:11:00,75.7,62.7,29.09,ESE,121,2.7,3.6,64,0.00,,,0.00,LWC V2.10 B1813,2013-07-06 09:11:00,
2013-07-06 04:16:00,75.6,62.5,29.09,East,90,2.2,3.1,64,0.00,,,0.00,LWC V2.10 B1813,2013-07-06 09:16:00,
2013-07-06 04:21:00,75.4,62.8,29.09,SE,126,4.0,4.0,65,0.00,,,0.00,LWC V2.10 B1813,2013-07-06 09:21:00,
2013-07-06 04:26:00,75.4,62.8,29.09,ESE,103,2.7,3.6,65,0.00,,,0.00,LWC V2.10 B1813,2013-07-06 09:26:00,
2013-07-06 04:31:00,75.2,62.6,29.09,ESE,111,2.2,3.1,65,0.00,,,0.00,LWC V2.10 B1813,2013-07-06 09:31:00,
2013-07-06 04:36:00,75.2,63.0,29.09,ESE,110,0.0,3.6,66,0.00,,,0.00,LWC V2.10 B1813,2013-07-06 09:36:00,
2013-07-06 04:41:00,75.2,63.0,29.09,ESE,118,2.7,2.7,66,0.00,,,0.00,LWC V2.10 B1813,2013-07-06 09:41:00,
2013-07-06 04:46:00,75.2,63.0,29.09,SSE,159,2.7,2.7,66,0.00,,,0.00,LWC V2.10 B1813,2013-07-06 09:46:00,
2013-07-06 04:51:00,75.0,63.3,29.09,ESE,116,0.0,3.6,67,0.00,,,0.00,LWC V2.10 B1813,2013-07-06 09:51:00,
2013-07-06 04:56:00,75.0,63.3,29.09,ESE,122,0.0,3.1,67,0.00,,,0.00,LWC V2.10 B1813,2013-07-06 09:56:00,
2013-07-06 05:01:00,74.8,63.1,29.09,SE,124,2.2,3.1,67,0.00,,,0.00,LWC V2.10 B1813,2013-07-06 10:01:00,
2013-07-06 05:06:00,74.8,63.6,29.09,SSE,147,3.6,4.0,68,0.00,,,0.00,LWC V2.10 B1813,2013-07-06 10:06:00,
2013-07-06 05:11:00,74.7,63.4,29.09,East,96,2.2,3.1,68,0.00,,,0.00,LWC V2.10 B1813,2013-07-06 10:11:00,
2013-07-06 05:16:00,74.7,63.4,29.09,ESE,118,2.2,3.1,68,0.00,,,0.00,LWC V2.10 B1813,2013-07-06 10:16:00,
2013-07-06 05:21:00,74.5,63.2,29.09,East,92,0.0,0.0,68,0.00,,,0.00,LWC V2.10 B1813,2013-07-06 10:21:00,
2013-07-06 05:26:00,74.3,63.5,29.09,SE,130,2.2,2.7,69,0.00,,,0.00,LWC V2.10 B1813,2013-07-06 10:26:00,
2013-07-06 05:31:00,74.3,63.5,29.09,SSE,166,0.0,0.0,69,0.00,,,0.00,LWC V2.10 B1813,2013-07-06 10:31:00,
2013-07-06 05:36:00,74.3,63.5,29.09,SE,146,0.0,2.2,69,0.00,,,0.00,LWC V2.10 B1813,2013-07-06 10:36:00,
2013-07-06 05:41:00,74.3,63.5,29.09,SE,143,0.0,0.0,69,0.00,,,0.00,LWC V2.10 B1813,2013-07-06 10:41:00,
2013-07-06 05:46:00,74.3,63.5,29.09,ESE,117,0.0,3.1,69,0.00,,,0.00,LWC V2.10 B1813,2013-07-06 10:46:00,
2013-07-06 05:51:00,74.1,63.3,29.09,ESE,103,0.0,0.0,69,0.00,,,0.00,LWC V2.10 B1813,2013-07-06 10:51:00,
2013-07-06 05:57:00,74.1,63.7,29.09,ESE,103,0.0,0.0,70,0.00,,,0.00,LWC V2.10 B1813,2013-07-06 10:57:00,
2013-07-06 06:02:00,73.9,63.5,29.09,ESE,104,0.0,0.0,70,0.00,,,0.00,LWC V2.10 B1813,2013-07-06 11:02:00,
2013-07-06 06:07:00,73.9,63.5,29.09,ESE,103,0.0,0.0,70,0.00,,,0.00,LWC V2.10 B1813,2013-07-06 11:07:00,
2013-07-06 06:12:00,74.1,63.7,29.09,ESE,103,0.0,0.0,70,0.00,,,0.00,LWC V2.10 B1813,2013-07-06 11:12:00,
2013-07-06 06:17:00,74.1,63.7,29.09,ESE,104,0.0,0.0,70,0.00,,,0.00,LWC V2.10 B1813,2013-07-06 11:17:00,
2013-07-06 06:22:00,74.3,63.9,29.09,ESE,104,0.0,0.0,70,0.00,,,0.00,LWC V2.10 B1813,2013-07-06 11:22:00,
2013-07-06 06:27:00,74.1,63.7,29.09,ESE,103,0.0,0.0,70,0.00,,,0.00,LWC V2.10 B1813,2013-07-06 11:27:00,
2013-07-06 06:32:00,74.1,63.7,29.09,East,100,2.2,3.1,70,0.00,,,0.00,LWC V2.10 B1813,2013-07-06 11:32:00,
2013-07-06 06:37:00,73.9,63.9,29.09,ESE,118,3.1,3.6,71,0.00,,,0.00,LWC V2.10 B1813,2013-07-06 11:37:00,
2013-07-06 06:42:00,73.8,63.8,29.09,SE,135,3.6,3.6,71,0.00,,,0.00,LWC V2.10 B1813,2013-07-06 11:42:00,
2013-07-06 06:46:00,73.8,64.2,29.09,SE,125,3.1,3.1,72,0.00,,,0.00,LWC V2.10 B1813,2013-07-06 11:46:00,
2013-07-06 06:51:00,73.6,64.0,29.09,East,99,0.0,0.0,72,0.00,,,0.00,LWC V2.10 B1813,2013-07-06 11:51:00,
2013-07-06 06:56:00,73.6,64.0,29.09,ESE,118,0.0,0.0,72,0.00,,,0.00,LWC V2.10 B1813,2013-07-06 11:56:00,
2013-07-06 07:01:00,73.6,64.4,29.09,East,99,2.2,3.6,73,0.00,,,0.00,LWC V2.10 B1813,2013-07-06 12:01:00,
2013-07-06 07:06:00,73.6,64.8,29.09,ESE,115,2.2,2.7,74,0.00,,,0.00,LWC V2.10 B1813,2013-07-06 12:06:00,
2013-07-06 07:11:00,73.6,64.8,29.09,SE,138,0.0,0.0,74,0.00,,,0.00,LWC V2.10 B1813,2013-07-06 12:11:00,
2013-07-06 07:17:00,73.4,65.0,29.09,SE,146,0.0,0.0,75,0.00,,,0.00,LWC V2.10 B1813,2013-07-06 12:17:00,
2013-07-06 07:22:00,73.6,65.2,29.09,ESE,112,0.0,0.0,75,0.00,,,0.00,LWC V2.10 B1813,2013-07-06 12:22:00,
2013-07-06 07:27:00,73.6,65.2,29.09,ESE,122,0.0,0.0,75,0.00,,,0.00,LWC V2.10 B1813,2013-07-06 12:27:00,
2013-07-06 07:32:00,73.8,65.7,29.09,SSE,149,0.0,0.0,76,0.00,,,0.00,LWC V2.10 B1813,2013-07-06 12:32:00,
2013-07-06 07:37:00,73.9,65.9,29.09,SE,128,2.7,3.6,76,0.00,,,0.00,LWC V2.10 B1813,2013-07-06 12:37:00,
2013-07-06 07:42:00,74.1,66.1,29.09,ESE,116,2.2,3.1,76,0.00,,,0.00,LWC V2.10 B1813,2013-07-06 12:42:00,
2013-07-06 07:47:00,74.3,66.2,29.09,SE,129,2.7,3.6,76,0.00,,,0.00,LWC V2.10 B1813,2013-07-06 12:47:00,
2013-07-06 07:52:00,74.7,66.6,29.09,ESE,103,0.0,0.0,76,0.00,,,0.00,LWC V2.10 B1813,2013-07-06 12:52:00,
2013-07-06 07:57:00,75.0,66.9,29.09,SE,126,0.0,0.0,76,0.00,,,0.00,LWC V2.10 B1813,2013-07-06 12:57:00,
2013-07-06 08:02:00,75.4,67.3,29.12,SE,125,2.7,2.7,76,0.00,,,0.00,LWC V2.10 B1813,2013-07-06 13:02:00,
2013-07-06 08:07:00,75.7,67.6,29.12,ESE,115,2.2,3.6,76,0.00,,,0.00,LWC V2.10 B1813,2013-07-06 13:07:00,
2013-07-06 08:12:00,75.9,67.8,29.12,South,187,0.0,2.7,76,0.00,,,0.00,LWC V2.10 B1813,2013-07-06 13:12:00,
2013-07-06 08:17:00,76.1,68.0,29.09,SE,137,2.2,4.0,76,0.00,,,0.00,LWC V2.10 B1813,2013-07-06 13:17:00,
2013-07-06 08:22:00,76.3,68.1,29.09,East,97,0.0,4.0,76,0.00,,,0.00,LWC V2.10 B1813,2013-07-06 13:22:00,
2013-07-06 08:27:00,76.6,68.5,29.09,SSW,203,4.0,4.0,76,0.00,,,0.00,LWC V2.10 B1813,2013-07-06 13:27:00,
2013-07-06 08:32:00,76.6,68.5,29.12,SSW,193,2.7,3.1,76,0.00,,,0.00,LWC V2.10 B1813,2013-07-06 13:32:00,
2013-07-06 08:37:00,76.8,68.7,29.12,South,179,2.7,3.1,76,0.00,,,0.00,LWC V2.10 B1813,2013-07-06 13:37:00,
2013-07-06 08:42:00,76.8,69.0,29.12,SSW,193,5.4,5.8,77,0.00,,,0.00,LWC V2.10 B1813,2013-07-06 13:42:00,
2013-07-06 08:47:00,76.8,69.0,29.12,SW,217,8.1,8.1,77,0.00,,,0.00,LWC V2.10 B1813,2013-07-06 13:47:00,
2013-07-06 08:52:00,77.4,69.6,29.12,South,191,4.9,5.4,77,0.00,,,0.00,LWC V2.10 B1813,2013-07-06 13:52:00,
2013-07-06 08:57:00,77.5,69.7,29.12,South,181,2.7,4.0,77,0.00,,,0.00,LWC V2.10 B1813,2013-07-06 13:57:00,
2013-07-06 09:02:00,77.9,69.7,29.12,South,170,2.2,4.0,76,0.00,,,0.00,LWC V2.10 B1813,2013-07-06 14:02:00,
2013-07-06 09:07:00,78.3,69.7,29.12,SSW,193,3.1,3.6,75,0.00,,,0.00,LWC V2.10 B1813,2013-07-06 14:07:00,
2013-07-06 09:12:00,78.4,69.4,29.12,SSW,196,0.0,5.4,74,0.00,,,0.00,LWC V2.10 B1813,2013-07-06 14:12:00,
2013-07-06 09:17:00,78.8,69.4,29.12,SSE,158,4.9,5.4,73,0.00,,,0.00,LWC V2.10 B1813,2013-07-06 14:17:00,
2013-07-06 09:22:00,79.3,69.5,29.12,ESE,113,7.2,7.2,72,0.00,,,0.00,LWC V2.10 B1813,2013-07-06 14:22:00,
2013-07-06 09:27:00,79.2,68.9,29.12,SSW,205,5.4,5.8,71,0.00,,,0.00,LWC V2.10 B1813,2013-07-06 14:27:00,
2013-07-06 09:32:00,79.0,68.8,29.12,ESE,123,4.0,6.3,71,0.00,,,0.00,LWC V2.10 B1813,2013-07-06 14:32:00,
2013-07-06 09:37:00,79.2,69.3,29.12,SE,127,4.0,4.0,72,0.00,,,0.00,LWC V2.10 B1813,2013-07-06 14:37:00,
2013-07-06 09:42:00,79.5,69.3,29.12,South,177,5.4,6.3,71,0.00,,,0.00,LWC V2.10 B1813,2013-07-06 14:42:00,
2013-07-06 09:47:00,80.1,69.4,29.12,SE,124,2.7,5.8,70,0.00,,,0.00,LWC V2.10 B1813,2013-07-06 14:47:00,
2013-07-06 09:52:00,80.4,69.7,29.12,South,177,2.7,4.0,70,0.00,,,0.00,LWC V2.10 B1813,2013-07-06 14:52:00,
2013-07-06 09:57:00,81.5,69.9,29.12,SSW,192,2.7,3.6,68,0.00,,,0.00,LWC V2.10 B1813,2013-07-06 14:57:00,
2013-07-06 10:02:00,81.3,69.3,29.12,SW,222,4.9,5.4,67,0.00,,,0.00,LWC V2.10 B1813,2013-07-06 15:02:00,
2013-07-06 10:07:00,80.8,68.8,29.12,SW,218,0.0,0.0,67,0.00,,,0.00,LWC V2.10 B1813,2013-07-06 15:07:00,
2013-07-06 10:12:00,81.7,69.2,29.12,ESE,120,2.2,2.7,66,0.00,,,0.00,LWC V2.10 B1813,2013-07-06 15:12:00,
2013-07-06 10:17:00,82.6,69.6,29.12,NE,50,0.0,0.0,65,0.00,,,0.00,LWC V2.10 B1813,2013-07-06 15:17:00,
2013-07-06 10:22:00,83.1,69.2,29.12,ESE,102,3.1,4.0,63,0.00,,,0.00,LWC V2.10 B1813,2013-07-06 15:22:00,
2013-07-06 10:27:00,83.7,69.7,29.12,South,171,3.1,3.6,63,0.00,,,0.00,LWC V2.10 B1813,2013-07-06 15:27:00,
2013-07-06 10:32:00,82.8,68.4,29.12,SSE,166,3.1,4.9,62,0.00,,,0.00,LWC V2.10 B1813,2013-07-06 15:32:00,
2013-07-06 10:37:00,83.3,68.9,29.12,ESE,109,2.2,5.4,62,0.00,,,0.00,LWC V2.10 B1813,2013-07-06 15:37:00,
2013-07-06 10:42:00,83.8,68.9,29.12,South,169,4.9,6.3,61,0.00,,,0.00,LWC V2.10 B1813,2013-07-06 15:42:00,
2013-07-06 10:47:00,84.4,68.5,29.12,SSE,150,3.1,6.3,59,0.00,,,0.00,LWC V2.10 B1813,2013-07-06 15:47:00,
2013-07-06 10:52:00,84.7,68.3,29.12,East,101,6.3,8.3,58,0.00,,,0.00,LWC V2.10 B1813,2013-07-06 15:52:00,
2013-07-06 10:57:00,85.1,68.1,29.12,ESE,107,3.1,5.8,57,0.00,,,0.00,LWC V2.10 B1813,2013-07-06 15:57:00,
2013-07-06 11:02:00,85.3,67.8,29.12,SE,133,5.4,5.4,56,0.00,,,0.00,LWC V2.10 B1813,2013-07-06 16:02:00,
2013-07-06 11:07:00,84.9,66.9,29.12,East,91,2.7,6.3,55,0.00,,,0.00,LWC V2.10 B1813,2013-07-06 16:07:00,
2013-07-06 11:12:00,86.0,67.4,29.12,ESE,113,5.4,7.6,54,0.00,,,0.00,LWC V2.10 B1813,2013-07-06 16:12:00,
2013-07-06 11:17:00,86.0,66.8,29.09,SSE,147,6.3,6.3,53,0.00,,,0.00,LWC V2.10 B1813,2013-07-06 16:17:00,
2013-07-06 11:22:00,86.2,67.6,29.09,NNE,21,2.2,4.0,54,0.00,,,0.00,LWC V2.10 B1813,2013-07-06 16:22:00,
2013-07-06 11:27:00,87.1,67.8,29.09,SSE,162,3.6,4.0,53,0.00,,,0.00,LWC V2.10 B1813,2013-07-06 16:27:00,
2013-07-06 11:32:00,86.7,66.4,29.12,SSE,150,3.1,7.6,51,0.00,,,0.00,LWC V2.10 B1813,2013-07-06 16:32:00,
2013-07-06 11:37:00,86.5,66.2,29.12,SSE,157,6.3,6.3,51,0.00,,,0.00,LWC V2.10 B1813,2013-07-06 16:37:00,
2013-07-06 11:42:00,86.9,66.6,29.12,South,176,4.9,7.6,51,0.00,,,0.00,LWC V2.10 B1813,2013-07-06 16:42:00,
2013-07-06 11:47:00,86.5,65.7,29.09,SSW,193,3.1,8.7,50,0.00,,,0.00,LWC V2.10 B1813,2013-07-06 16:47:00,
2013-07-06 11:52:00,87.3,65.7,29.09,NE,46,10.1,10.1,49,0.00,,,0.00,LWC V2.10 B1813,2013-07-06 16:52:00,
2013-07-06 11:57:00,87.6,65.5,29.09,SSE,154,8.3,8.3,48,0.00,,,0.00,LWC V2.10 B1813,2013-07-06 16:57:00,
2013-07-06 12:02:00,88.2,65.3,29.12,ESE,123,4.0,8.3,47,0.00,,,0.00,LWC V2.10 B1813,2013-07-06 17:02:00,
2013-07-06 12:07:00,88.2,64.7,29.12,East,90,4.0,8.3,46,0.00,,,0.00,LWC V2.10 B1813,2013-07-06 17:07:00,
2013-07-06 12:12:00,88.3,64.3,29.12,SE,138,8.7,8.7,45,0.00,,,0.00,LWC V2.10 B1813,2013-07-06 17:12:00,
2013-07-06 12:17:00,88.9,64.1,29.09,East,90,6.3,7.6,44,0.00,,,0.00,LWC V2.10 B1813,2013-07-06 17:17:00,
2013-07-06 12:22:00,89.1,64.3,29.09,East,93,3.6,8.1,44,0.00,,,0.00,LWC V2.10 B1813,2013-07-06 17:22:00,
2013-07-06 12:27:00,89.2,64.4,29.09,ESE,119,3.1,5.8,44,0.00,,,0.00,LWC V2.10 B1813,2013-07-06 17:27:00,
2013-07-06 12:32:00,89.2,63.8,29.09,SE,125,3.6,5.4,43,0.00,,,0.00,LWC V2.10 B1813,2013-07-06 17:32:00,
2013-07-06 12:37:00,90.0,63.7,29.09,SSE,152,6.3,10.5,42,0.00,,,0.00,LWC V2.10 B1813,2013-07-06 17:37:00,
2013-07-06 12:42:00,90.3,63.4,29.09,ESE,108,4.9,7.6,41,0.00,,,0.00,LWC V2.10 B1813,2013-07-06 17:42:00,
2013-07-06 12:47:00,90.7,63.7,29.09,ENE,66,2.7,4.9,41,0.00,,,0.00,LWC V2.10 B1813,2013-07-06 17:47:00,
2013-07-06 12:52:00,91.0,63.3,29.09,East,99,8.3,8.3,40,0.00,,,0.00,LWC V2.10 B1813,2013-07-06 17:52:00,
2013-07-06 12:57:00,90.1,62.5,29.09,SE,140,3.6,7.6,40,0.00,,,0.00,LWC V2.10 B1813,2013-07-06 17:57:00,
2013-07-06 13:02:00,90.5,62.8,29.09,NE,35,5.4,5.4,40,0.00,,,0.00,LWC V2.10 B1813,2013-07-06 18:02:00,
2013-07-06 13:07:00,91.6,63.8,29.09,SSE,151,3.6,7.6,40,0.00,,,0.00,LWC V2.10 B1813,2013-07-06 18:07:00,
2013-07-06 13:12:00,91.4,62.9,29.09,SE,146,6.3,11.4,39,0.00,,,0.00,LWC V2.10 B1813,2013-07-06 18:12:00,
2013-07-06 13:17:00,91.9,63.4,29.09,SSE,147,6.3,8.7,39,0.00,,,0.00,LWC V2.10 B1813,2013-07-06 18:17:00,
2013-07-06 13:22:00,91.8,62.5,29.09,SSE,149,6.3,11.9,38,0.00,,,0.00,LWC V2.10 B1813,2013-07-06 18:22:00,
2013-07-06 13:27:00,91.8,62.5,29.09,East,96,5.8,8.1,38,0.00,,,0.00,LWC V2.10 B1813,2013-07-06 18:27:00,
2013-07-06 13:32:00,92.3,63.0,29.06,SE,127,10.1,10.1,38,0.00,,,0.00,LWC V2.10 B1813,2013-07-06 18:32:00,
2013-07-06 13:37:00,92.5,63.1,29.06,East,89,4.9,6.3,38,0.00,,,0.00,LWC V2.10 B1813,2013-07-06 18:37:00,
2013-07-06 13:42:00,92.5,62.4,29.06,SE,131,5.8,6.3,37,0.00,,,0.00,LWC V2.10 B1813,2013-07-06 18:42:00,
2013-07-06 13:47:00,92.5,62.4,29.06,SSW,199,4.0,10.1,37,0.00,,,0.00,LWC V2.10 B1813,2013-07-06 18:47:00,
2013-07-06 13:52:00,93.4,63.2,29.06,East,100,3.1,10.1,37,0.00,,,0.00,LWC V2.10 B1813,2013-07-06 18:52:00,
2013-07-06 13:57:00,93.4,63.2,29.06,East,101,10.1,10.1,37,0.00,,,0.00,LWC V2.10 B1813,2013-07-06 18:57:00,
2013-07-06 14:02:00,92.8,62.7,29.06,SE,126,4.9,5.8,37,0.00,,,0.00,LWC V2.10 B1813,2013-07-06 19:02:00,
2013-07-06 14:07:00,92.7,62.5,29.06,ESE,111,5.8,10.1,37,0.00,,,0.00,LWC V2.10 B1813,2013-07-06 19:07:00,
2013-07-06 14:12:00,93.2,62.2,29.06,ESE,103,4.0,8.1,36,0.00,,,0.00,LWC V2.10 B1813,2013-07-06 19:12:00,
2013-07-06 14:17:00,94.1,63.0,29.06,SSE,165,6.3,8.7,36,0.00,,,0.00,LWC V2.10 B1813,2013-07-06 19:17:00,
2013-07-06 14:22:00,94.3,61.5,29.06,SW,218,5.8,8.7,34,0.00,,,0.00,LWC V2.10 B1813,2013-07-06 19:22:00,
2013-07-06 14:27:00,94.3,61.5,29.06,East,95,3.1,10.5,34,0.00,,,0.00,LWC V2.10 B1813,2013-07-06 19:27:00,
2013-07-06 14:32:00,94.5,61.7,29.06,SE,132,9.6,9.6,34,0.00,,,0.00,LWC V2.10 B1813,2013-07-06 19:32:00,
2013-07-06 14:37:00,94.3,60.7,29.06,ESE,115,5.8,7.6,33,0.00,,,0.00,LWC V2.10 B1813,2013-07-06 19:37:00,
2013-07-06 14:42:00,95.4,61.6,29.06,ENE,74,4.0,7.6,33,0.00,,,0.00,LWC V2.10 B1813,2013-07-06 19:42:00,
2013-07-06 14:47:00,95.0,60.5,29.06,SE,146,5.8,13.2,32,0.00,,,0.00,LWC V2.10 B1813,2013-07-06 19:47:00,
2013-07-06 14:52:00,94.3,59.8,29.06,ESE,112,5.8,12.3,32,0.00,,,0.00,LWC V2.10 B1813,2013-07-06 19:52:00,
2013-07-06 14:57:00,94.3,59.8,29.06,South,175,5.4,8.3,32,0.00,,,0.00,LWC V2.10 B1813,2013-07-06 19:57:00,
2013-07-06 15:02:00,94.8,60.3,29.03,East,94,6.3,8.7,32,0.00,,,0.00,LWC V2.10 B1813,2013-07-06 20:02:00,
2013-07-06 15:07:00,94.5,59.1,29.03,East,101,4.0,8.7,31,0.00,,,0.00,LWC V2.10 B1813,2013-07-06 20:07:00,
2013-07-06 15:12:00,95.0,58.6,29.03,ESE,105,8.7,12.8,30,0.00,,,0.00,LWC V2.10 B1813,2013-07-06 20:12:00,
2013-07-06 15:17:00,95.4,59.0,29.03,SE,145,4.0,6.3,30,0.00,,,0.00,LWC V2.10 B1813,2013-07-06 20:17:00,
2013-07-06 15:22:00,96.3,60.6,29.03,SE,128,4.0,4.0,31,0.00,,,0.00,LWC V2.10 B1813,2013-07-06 20:22:00,
2013-07-06 15:27:00,95.9,58.5,29.03,South,190,3.1,8.1,29,0.00,,,0.00,LWC V2.10 B1813,2013-07-06 20:27:00,
2013-07-06 15:32:00,95.5,58.2,29.03,ESE,112,4.0,10.5,29,0.00,,,0.00,LWC V2.10 B1813,2013-07-06 20:32:00,
2013-07-06 15:37:00,95.4,59.0,29.03,SSE,158,5.4,10.1,30,0.00,,,0.00,LWC V2.10 B1813,2013-07-06 20:37:00,
2013-07-06 15:42:00,95.5,59.1,29.03,East,95,5.8,6.7,30,0.00,,,0.00,LWC V2.10 B1813,2013-07-06 20:42:00,
2013-07-06 15:47:00,94.8,58.5,29.03,SSW,207,8.3,8.3,30,0.00,,,0.00,LWC V2.10 B1813,2013-07-06 20:47:00,
2013-07-06 15:52:00,95.4,59.0,29.03,East,92,9.6,10.5,30,0.00,,,0.00,LWC V2.10 B1813,2013-07-06 20:52:00,
2013-07-06 15:57:00,95.4,59.0,29.03,ESE,120,2.7,5.8,30,0.00,,,0.00,LWC V2.10 B1813,2013-07-06 20:57:00,
2013-07-06 16:02:00,94.8,59.4,29.03,SE,137,4.0,6.3,31,0.00,,,0.00,LWC V2.10 B1813,2013-07-06 21:02:00,
2013-07-06 16:07:00,95.7,60.2,29.03,ESE,108,2.2,8.3,31,0.00,,,0.00,LWC V2.10 B1813,2013-07-06 21:07:00,
2013-07-06 16:12:00,95.5,59.1,29.03,ESE,116,8.1,10.5,30,0.00,,,0.00,LWC V2.10 B1813,2013-07-06 21:12:00,
2013-07-06 16:17:00,95.7,59.3,29.03,East,82,5.4,7.2,30,0.00,,,0.00,LWC V2.10 B1813,2013-07-06 21:17:00,
2013-07-06 16:22:00,95.4,58.0,29.03,ESE,118,2.7,5.8,29,0.00,,,0.00,LWC V2.10 B1813,2013-07-06 21:22:00,
2013-07-06 16:27:00,96.3,58.8,29.03,South,181,4.9,5.4,29,0.00,,,0.00,LWC V2.10 B1813,2013-07-06 21:27:00,
2013-07-06 16:32:00,95.9,58.5,29.03,ENE,75,3.6,9.6,29,0.00,,,0.00,LWC V2.10 B1813,2013-07-06 21:32:00,
2013-07-06 16:37:00,95.4,58.0,29.03,East,96,5.8,8.1,29,0.00,,,0.00,LWC V2.10 B1813,2013-07-06 21:37:00,
2013-07-06 16:42:00,95.7,58.3,29.03,SSE,167,7.2,10.1,29,0.00,,,0.00,LWC V2.10 B1813,2013-07-06 21:42:00,
2013-07-06 16:47:00,96.3,58.8,29.00,ESE,121,5.8,11.0,29,0.00,,,0.00,LWC V2.10 B1813,2013-07-06 21:47:00,
2013-07-06 16:52:00,95.9,58.5,29.00,ESE,109,3.1,3.1,29,0.00,,,0.00,LWC V2.10 B1813,2013-07-06 21:52:00,
2013-07-06 16:57:00,95.7,58.3,29.00,SSW,194,5.4,6.7,29,0.00,,,0.00,LWC V2.10 B1813,2013-07-06 21:57:00,
2013-07-06 17:02:00,95.5,58.2,29.00,SE,146,4.9,10.5,29,0.00,,,0.00,LWC V2.10 B1813,2013-07-06 22:02:00,
2013-07-06 17:07:00,95.2,57.9,29.00,NE,47,9.6,9.6,29,0.00,,,0.00,LWC V2.10 B1813,2013-07-06 22:07:00,
2013-07-06 17:12:00,95.9,58.5,29.00,ESE,102,2.7,3.1,29,0.00,,,0.00,LWC V2.10 B1813,2013-07-06 22:12:00,
2013-07-06 17:17:00,95.9,58.5,29.00,East,96,2.7,6.3,29,0.00,,,0.00,LWC V2.10 B1813,2013-07-06 22:17:00,
2013-07-06 17:22:00,96.1,57.6,29.00,ESE,112,5.4,8.7,28,0.00,,,0.00,LWC V2.10 B1813,2013-07-06 22:22:00,
2013-07-06 17:27:00,95.5,58.2,29.00,ESE,118,5.8,7.6,29,0.00,,,0.00,LWC V2.10 B1813,2013-07-06 22:27:00,
2013-07-06 17:32:00,95.5,58.2,29.00,SSE,152,2.7,3.6,29,0.00,,,0.00,LWC V2.10 B1813,2013-07-06 22:32:00,
2013-07-06 17:37:00,95.2,56.9,29.00,SE,125,6.3,6.7,28,0.00,,,0.00,LWC V2.10 B1813,2013-07-06 22:37:00,
2013-07-06 17:42:00,95.7,58.3,29.00,East,93,5.4,7.6,29,0.00,,,0.00,LWC V2.10 B1813,2013-07-06 22:42:00,
2013-07-06 17:47:00,96.3,58.8,29.00,East,88,6.3,6.3,29,0.00,,,0.00,LWC V2.10 B1813,2013-07-06 22:47:00,
2013-07-06 17:52:00,96.1,58.6,29.00,NE,44,7.6,7.6,29,0.00,,,0.00,LWC V2.10 B1813,2013-07-06 22:52:00,
2013-07-06 17:57:00,95.7,58.3,29.00,East,98,6.3,10.5,29,0.00,,,0.00,LWC V2.10 B1813,2013-07-06 22:57:00,
2013-07-06 18:02:00,95.5,58.2,29.00,ESE,121,2.7,8.3,29,0.00,,,0.00,LWC V2.10 B1813,2013-07-06 23:02:00,
2013-07-06 18:07:00,95.4,58.0,29.00,ESE,107,5.8,5.8,29,0.00,,,0.00,LWC V2.10 B1813,2013-07-06 23:07:00,
2013-07-06 18:12:00,95.4,58.0,29.00,ESE,108,4.9,8.1,29,0.00,,,0.00,LWC V2.10 B1813,2013-07-06 23:12:00,
2013-07-06 18:17:00,95.5,58.2,29.00,SSE,162,5.4,7.2,29,0.00,,,0.00,LWC V2.10 B1813,2013-07-06 23:17:00,
2013-07-06 18:22:00,95.4,58.0,29.00,SE,145,6.3,8.7,29,0.00,,,0.00,LWC V2.10 B1813,2013-07-06 23:22:00,
2013-07-06 18:27:00,94.8,57.5,29.00,ESE,102,3.6,6.3,29,0.00,,,0.00,LWC V2.10 B1813,2013-07-06 23:27:00,
2013-07-06 18:32:00,94.6,57.4,29.00,SSE,166,5.4,8.1,29,0.00,,,0.00,LWC V2.10 B1813,2013-07-06 23:32:00,
2013-07-06 18:37:00,94.6,57.4,29.00,ESE,110,6.3,9.6,29,0.00,,,0.00,LWC V2.10 B1813,2013-07-06 23:37:00,
2013-07-06 18:42:00,94.1,56.9,29.00,SE,136,5.4,6.3,29,0.00,,,0.00,LWC V2.10 B1813,2013-07-06 23:42:00,
2013-07-06 18:47:00,94.1,56.9,29.00,East,95,4.0,5.8,29,0.00,,,0.00,LWC V2.10 B1813,2013-07-06 23:47:00,
2013-07-06 18:52:00,93.9,56.8,29.00,ESE,102,6.3,6.3,29,0.00,,,0.00,LWC V2.10 B1813,2013-07-06 23:52:00,
2013-07-06 18:57:00,93.4,56.3,29.00,East,87,3.6,6.3,29,0.00,,,0.00,LWC V2.10 B1813,2013-07-06 23:57:00,
2013-07-06 19:02:00,93.6,56.5,29.00,SSE,163,3.6,7.6,29,0.00,,,0.00,LWC V2.10 B1813,2013-07-07 00:02:00,
2013-07-06 19:07:00,93.6,56.5,29.00,SE,140,2.7,6.3,29,0.00,,,0.00,LWC V2.10 B1813,2013-07-07 00:07:00,
2013-07-06 19:12:00,93.7,56.6,29.00,ENE,76,3.6,4.0,29,0.00,,,0.00,LWC V2.10 B1813,2013-07-07 00:12:00,
2013-07-06 19:17:00,93.6,56.5,29.00,ESE,122,4.0,7.2,29,0.00,,,0.00,LWC V2.10 B1813,2013-07-07 00:17:00,
2013-07-06 19:22:00,93.4,56.3,29.00,SE,131,4.9,5.4,29,0.00,,,0.00,LWC V2.10 B1813,2013-07-07 00:22:00,
2013-07-06 19:27:00,93.2,56.2,29.00,ESE,123,5.4,6.3,29,0.00,,,0.00,LWC V2.10 B1813,2013-07-07 00:27:00,
2013-07-06 19:32:00,93.0,56.0,29.00,ENE,74,4.9,5.4,29,0.00,,,0.00,LWC V2.10 B1813,2013-07-07 00:32:00,
2013-07-06 19:37:00,92.8,55.9,29.00,SE,126,3.6,5.8,29,0.00,,,0.00,LWC V2.10 B1813,2013-07-07 00:37:00,
2013-07-06 19:42:00,92.7,55.7,29.00,ESE,102,2.7,5.4,29,0.00,,,0.00,LWC V2.10 B1813,2013-07-07 00:42:00,
2013-07-06 19:47:00,92.5,56.5,29.00,SSE,149,5.8,5.8,30,0.00,,,0.00,LWC V2.10 B1813,2013-07-07 00:47:00,
2013-07-06 19:52:00,91.9,56.0,29.00,SSE,148,3.1,7.6,30,0.00,,,0.00,LWC V2.10 B1813,2013-07-07 00:52:00,
2013-07-06 19:57:00,91.6,55.7,29.00,East,100,2.7,5.8,30,0.00,,,0.00,LWC V2.10 B1813,2013-07-07 00:57:00,
2013-07-06 20:02:00,91.2,55.4,29.00,East,99,2.2,5.8,30,0.00,,,0.00,LWC V2.10 B1813,2013-07-07 01:02:00,
2013-07-06 20:07:00,90.9,56.0,29.00,East,99,3.1,4.0,31,0.00,,,0.00,LWC V2.10 B1813,2013-07-07 01:07:00,
2013-07-06 20:12:00,90.5,55.7,29.00,ESE,115,2.7,5.4,31,0.00,,,0.00,LWC V2.10 B1813,2013-07-07 01:12:00,
2013-07-06 20:17:00,90.1,55.4,29.00,ESE,111,3.1,3.6,31,0.00,,,0.00,LWC V2.10 B1813,2013-07-07 01:17:00,
2013-07-06 20:22:00,90.0,55.2,29.00,ESE,110,4.9,4.9,31,0.00,,,0.00,LWC V2.10 B1813,2013-07-07 01:22:00,
2013-07-06 20:27:00,89.6,54.9,29.00,SE,128,2.7,5.4,31,0.00,,,0.00,LWC V2.10 B1813,2013-07-07 01:27:00,
2013-07-06 20:32:00,89.4,55.6,29.00,SE,130,2.7,4.9,32,0.00,,,0.00,LWC V2.10 B1813,2013-07-07 01:32:00,
2013-07-06 20:37:00,89.2,55.5,29.00,SSE,154,4.9,5.8,32,0.00,,,0.00,LWC V2.10 B1813,2013-07-07 01:37:00,
2013-07-06 20:42:00,89.1,55.3,29.00,SSE,153,2.7,6.3,32,0.00,,,0.00,LWC V2.10 B1813,2013-07-07 01:42:00,
2013-07-06 20:47:00,88.9,55.2,29.00,SE,141,4.9,6.3,32,0.00,,,0.00,LWC V2.10 B1813,2013-07-07 01:47:00,
2013-07-06 20:52:00,88.7,55.0,29.00,ESE,115,5.8,5.8,32,0.00,,,0.00,LWC V2.10 B1813,2013-07-07 01:52:00,
2013-07-06 20:57:00,88.5,54.9,29.00,ESE,115,3.6,4.0,32,0.00,,,0.00,LWC V2.10 B1813,2013-07-07 01:57:00,
2013-07-06 21:02:00,88.3,55.5,29.03,SE,134,4.0,5.4,33,0.00,,,0.00,LWC V2.10 B1813,2013-07-07 02:02:00,
2013-07-06 21:07:00,88.2,55.4,29.03,ESE,118,2.2,4.9,33,0.00,,,0.00,LWC V2.10 B1813,2013-07-07 02:07:00,
2013-07-06 21:12:00,88.0,55.2,29.03,ESE,108,4.0,6.7,33,0.00,,,0.00,LWC V2.10 B1813,2013-07-07 02:12:00,
2013-07-06 21:17:00,87.8,55.1,29.03,East,98,3.1,4.0,33,0.00,,,0.00,LWC V2.10 B1813,2013-07-07 02:17:00,
2013-07-06 21:22:00,87.8,55.1,29.03,East,99,3.6,4.9,33,0.00,,,0.00,LWC V2.10 B1813,2013-07-07 02:22:00,
2013-07-06 21:27:00,87.6,55.7,29.03,East,93,4.0,6.3,34,0.00,,,0.00,LWC V2.10 B1813,2013-07-07 02:27:00,
2013-07-06 21:32:00,87.6,55.7,29.03,East,87,3.1,5.4,34,0.00,,,0.00,LWC V2.10 B1813,2013-07-07 02:32:00,
2013-07-06 21:37:00,87.6,55.7,29.03,ESE,106,2.7,4.0,34,0.00,,,0.00,LWC V2.10 B1813,2013-07-07 02:37:00,
2013-07-06 21:40:00,87.6,55.7,29.03,ESE,116,2.7,4.0,34,0.00,,,0.00,LWC V2.10 B1813,2013-07-07 02:40:00,
2013-07-06 21:45:00,87.6,55.7,29.03,East,92,5.8,5.8,34,0.00,,,0.00,LWC V2.10 B1813,2013-07-07 02:45:00,
2013-07-06 21:50:00,87.6,56.5,29.03,ESE,118,5.8,5.8,35,0.00,,,0.00,LWC V2.10 B1813,2013-07-07 02:50:00,
2013-07-06 21:55:00,87.6,56.5,29.03,East,86,5.4,5.4,35,0.00,,,0.00,LWC V2.10 B1813,2013-07-07 02:55:00,
2013-07-06 22:00:00,87.6,56.5,29.03,ESE,108,0.0,4.9,35,0.00,,,0.00,LWC V2.10 B1813,2013-07-07 03:00:00,
2013-07-06 22:05:00,87.6,57.3,29.03,SE,131,4.0,8.3,36,0.00,,,0.00,LWC V2.10 B1813,2013-07-07 03:05:00,
2013-07-06 22:10:00,87.4,57.2,29.03,SSE,153,4.0,4.9,36,0.00,,,0.00,LWC V2.10 B1813,2013-07-07 03:10:00,
2013-07-06 22:15:00,87.3,57.8,29.03,SE,144,8.7,10.5,37,0.00,,,0.00,LWC V2.10 B1813,2013-07-07 03:15:00,
2013-07-06 22:20:00,87.1,59.1,29.06,SSE,150,5.8,9.6,39,0.00,,,0.00,LWC V2.10 B1813,2013-07-07 03:20:00,
2013-07-06 22:25:00,87.1,59.8,29.06,ESE,117,5.8,7.6,40,0.00,,,0.00,LWC V2.10 B1813,2013-07-07 03:25:00,
2013-07-06 22:30:00,86.9,59.6,29.06,South,169,8.1,8.7,40,0.00,,,0.00,LWC V2.10 B1813,2013-07-07 03:30:00,
2013-07-06 22:35:00,86.7,60.2,29.06,South,188,5.4,6.7,41,0.00,,,0.00,LWC V2.10 B1813,2013-07-07 03:35:00,
2013-07-06 22:40:00,86.5,60.7,29.06,SE,144,5.8,7.2,42,0.00,,,0.00,LWC V2.10 B1813,2013-07-07 03:40:00,
2013-07-06 22:45:00,86.2,61.0,29.06,South,169,5.4,8.1,43,0.00,,,0.00,LWC V2.10 B1813,2013-07-07 03:45:00,
2013-07-06 22:50:00,86.0,60.9,29.06,ESE,117,2.7,5.8,43,0.00,,,0.00,LWC V2.10 B1813,2013-07-07 03:50:00,
2013-07-06 22:55:00,85.8,62.0,29.06,SSE,160,8.1,8.3,45,0.00,,,0.00,LWC V2.10 B1813,2013-07-07 03:55:00,
2013-07-06 23:00:00,85.6,63.1,29.06,ESE,115,8.1,12.8,47,0.00,,,0.00,LWC V2.10 B1813,2013-07-07 04:00:00,
2013-07-06 23:01:00,85.6,63.1,29.06,SSW,192,8.1,11.9,47,0.00,,,0.00,LWC V2.10 B1813,2013-07-07 04:01:00,
2013-07-06 23:06:00,85.5,62.9,29.06,SSE,154,7.6,8.7,47,0.00,,,0.00,LWC V2.10 B1813,2013-07-07 04:06:00,
2013-07-06 23:12:00,85.1,63.2,29.06,ESE,112,8.3,10.1,48,0.00,,,0.00,LWC V2.10 B1813,2013-07-07 04:12:00,
2013-07-06 23:17:00,84.9,64.2,29.09,WSW,248,11.0,12.8,50,0.00,,,0.00,LWC V2.10 B1813,2013-07-07 04:17:00,
2013-07-06 23:22:00,84.6,64.4,29.09,SE,137,8.3,17.4,51,0.00,,,0.00,LWC V2.10 B1813,2013-07-07 04:22:00,
2013-07-06 23:27:00,84.2,64.6,29.09,ESE,104,6.3,13.2,52,0.00,,,0.00,LWC V2.10 B1813,2013-07-07 04:27:00,
2013-07-06 23:32:00,84.0,65.0,29.09,ESE,103,11.4,13.2,53,0.00,,,0.00,LWC V2.10 B1813,2013-07-07 04:32:00,
2013-07-06 23:37:00,83.8,65.4,29.09,ENE,63,7.6,8.1,54,0.00,,,0.00,LWC V2.10 B1813,2013-07-07 04:37:00,
2013-07-06 23:42:00,83.3,64.9,29.09,ESE,107,7.6,12.8,54,0.00,,,0.00,LWC V2.10 B1813,2013-07-07 04:42:00,
2013-07-06 23:47:00,82.9,65.1,29.09,SE,129,3.6,12.3,55,0.00,,,0.00,LWC V2.10 B1813,2013-07-07 04:47:00,
2013-07-06 23:52:00,82.6,65.8,29.09,SSE,157,8.1,10.5,57,0.00,,,0.00,LWC V2.10 B1813,2013-07-07 04:52:00,
2013-07-06 23:57:00,82.4,65.6,29.09,ESE,115,5.8,8.3,57,0.00,,,0.00,LWC V2.10 B1813,2013-07-07 04:57:00,